Regional Weather Roundup
Issued by NWS

Home | Current Version | Previous Version | Text Only | Print | Product List | Glossary On
Versions: 1 2 3 4 5 6 7 8 9 10 11 12 13 14 15 16 17 18 19 20 21 22 23 24 25 26 27 28 29 30 31 32 33 34 35 36 37 38 39 40 41 42 43 44 45 46 47 48 49 50
000
ASCA42 TJSJ 050610
RWRPR
PUERTO RICO/U.S. VIRGIN ISLANDS HOURLY WEATHER ROUNDUP
NATIONAL WEATHER SERVICE SAN JUAN PR
200 AM AST SUN JUL 05 2015

PRZ001-004-050700-
PUERTO RICO

CITY           SKY/WX    TMP DP  RH WIND       PRES   REMARKS
SAN JUAN LMM   PTCLDY    81  75  83 E8        30.07F
PONCE          PTCLDY    81  72  74 NE6       30.00F
$$

PRZ006-007-050700-
U.S. VIRGIN ISLANDS

CITY           SKY/WX    TMP DP  RH WIND       PRES   REMARKS
CHARLOTTE AMA  CLOUDY    82  72  69 E16G29    30.06F
CHRISTIANSTED  CLOUDY    81  72  74 E13       30.06F
$$

HOURLY WEATHER ROUNDUP FOR THE NEWS MEDIA

CITY           SKY/WX    TMP DP  RH WIND       PRES   REMARKS
ORLANDO        MOCLDY    80  76  87 S3        30.14S
NEW YORK       MOCLDY    68  62  81 S5        30.05R
NEWARK         MOCLDY    71  58  63 W3        30.04R
CHICAGO        PTCLDY    67  56  67 SE5       30.03S SMOKE
HARTFORD       CLEAR     53  51  93 CALM      30.00R
BOSTON         PTCLDY    62  59  90 S6        30.00S
DALLAS         PTCLDY    84  72  67 S10G16    29.97S
PHILADELPHIA   CLOUDY    71  57  61 N3        30.06R
LOS ANGELES    CLOUDY    63  59  87 W7        29.95R
WASHINGTON DC  MOCLDY    69  66  90 N5        30.06R FOG


USA.gov is the U.S. government's official web portal to all federal, state and local government web resources and services.